Regional Weather Roundup
Issued by NWS

Home | Current Version | Previous Version | Graphics & Text | Print | Product List | Glossary On
Versions: 1 2 3 4 5 6 7 8 9 10 11 12 13 14 15 16 17 18 19 20 21 22 23 24 25 26 27 28 29 30 31 32 33 34 35 36 37 38 39 40 41 42 43 44 45 46 47 48 49 50
000
ASUS43 KLMK 231202
RWRKY
KENTUCKY REGIONAL WEATHER ROUNDUP
NATIONAL WEATHER SERVICE LOUISVILLE KY
800 AM EDT SAT SEP 23 2017

NOTE "FAIR" INDICATES FEW OR NO CLOUDS BELOW 12,000 FEET
WITH NO SIGNIFICANT WEATHER AND/OR OBSTRUCTIONS TO VISIBILITY.

KYZ001>023-026-027-061>063-070>075-231300-
WESTERN AND SOUTH CENTRAL KENTUCKY

CITY           SKY/WX    TMP DP  RH WIND       PRES   REMARKS
PADUCAH        CLEAR     65  63  93 CALM      30.03S FOG
HENDERSON      FOG       63  63 100 CALM      30.06R VSB 1/4
OWENSBORO      CLEAR     69  67  93 CALM      30.07R
HOPKINSVILLE   NOT AVBL
BOWLING GREEN  CLEAR     66  66 100 CALM      30.07R FOG
GLASGOW        NOT AVBL
$$

KYZ024-025-028>034-038-045-046-053-231300-
NORTH CENTRAL KENTUCKY

CITY           SKY/WX    TMP DP  RH WIND       PRES   REMARKS
LOUISVILLE/SDF PTCLDY    70  65  84 CALM      30.09R
LOUISVILLE/LOU CLEAR     65  65 100 CALM      30.09R
FORT KNOX      NOT AVBL
$$

KYZ035>037-039>044-047>052-055>060-089>105-231300-
NORTHEAST KENTUCKY

CITY           SKY/WX    TMP DP  RH WIND       PRES   REMARKS
LEXINGTON      CLEAR     66  62  87 CALM      30.11R FOG
COVINGTON      PTCLDY    66  66 100 CALM      30.11R
FRANKFORT      CLEAR     63  59  87 N3        30.09R FOG
$$

KYZ054-064>069-076>088-106>120-231300-
SOUTHEAST KENTUCKY

CITY           SKY/WX    TMP DP  RH WIND       PRES   REMARKS
JACKSON        CLEAR     64  62  93 CALM      30.11R FOG
LONDON         CLEAR     62  60  93 CALM      30.10R FOG
SOMERSET       NOT AVBL
MIDDLESBORO    FOG       62  62 100 CALM      30.11S VSB 1/2
MONTICELLO     MOSUNNY   59  59 100 W7        30.11R FOG
$$





USA.gov is the U.S. government's official web portal to all federal, state and local government web resources and services.